This demonstration page uses our WeatherBlox Daily Observations layout. Learn more.

Hourly Observations for March 22, 2019

Temp ( °F °C ) Dew Point ( °F °C ) Humidity (%) Winds ( mph kmh ) Pressure ( in mb ) Visibility ( mi km ) Precip ( " mm )
12:15 am 00:15 Cloudy 37 3 37 3 100 100 NNW 16 26 29.65 1004 10 16.09344 0 0
12:35 am 00:35 Cloudy 37 3 37 3 100 100 NNW 22 35 29.65 1004 10 16.09344 0 0
12:55 am 00:55 Cloudy 37 3 37 3 100 100 NNW 20 31 29.65 1004 7 11.265408 0 0
1:15 am 01:15 Cloudy 37 3 37 3 100 100 NNW 17 28 29.65 1004 10 16.09344 0 0
1:35 am 01:35 Cloudy 37 3 37 3 100 100 NNW 17 28 29.65 1004 10 16.09344 0 0
1:55 am 01:55 Cloudy 37 3 37 3 100 100 NW 17 28 29.65 1004 10 16.09344 0 0
2:15 am 02:15 Cloudy 37 3 37 3 100 100 NNW 18 30 29.65 1004 10 16.09344 0 0
2:35 am 02:35 Cloudy 39 4 37 3 93 93 NNW 18 30 29.65 1004 10 16.09344 0 0
2:55 am 02:55 Cloudy 41 5 37 3 87 87 NNW 17 28 29.65 1004 10 16.09344 0 0
3:15 am 03:15 Cloudy 41 5 37 3 87 87 NNW 17 28 29.65 1004 10 16.09344 0 0
3:35 am 03:35 Cloudy 41 5 39 4 93 93 NNW 16 26 29.65 1004 10 16.09344 0 0
3:55 am 03:55 Cloudy 41 5 39 4 93 93 NNW 16 26 29.62 1003 10 16.09344 0 0
4:15 am 04:15 Cloudy 41 5 41 5 100 100 NNW 15 24 29.62 1003 10 16.09344 0 0
4:35 am 04:35 Cloudy 43 6 41 5 93 93 NW 17 28 29.59 1002 10 16.09344 0 0
4:55 am 04:55 Cloudy 43 6 39 4 87 87 NW 17 28 29.59 1002 10 16.09344 0 0
5:15 am 05:15 Cloudy 43 6 37 3 81 81 NW 20 31 29.59 1002 10 16.09344 0 0
5:35 am 05:35 Cloudy 43 6 36 2 76 76 NNW 23 37 29.59 1002 10 16.09344 0 0
5:55 am 05:55 Cloudy 43 6 36 2 76 76 NNW 22 35 29.62 1003 10 16.09344 0 0
6:15 am 06:15 Cloudy 43 6 36 2 76 76 NNW 12 19 29.62 1003 10 16.09344 0 0
6:35 am 06:35 Cloudy 43 6 36 2 76 76 NW 15 24 29.62 1003 10 16.09344 0 0
6:55 am 06:55 Cloudy 43 6 36 2 76 76 NW 20 31 29.62 1003 10 16.09344 0 0
7:15 am 07:15 Cloudy 43 6 36 2 76 76 NNW 13 20 29.68 1005 10 16.09344 0 0
7:35 am 07:35 Cloudy 43 6 34 1 71 71 NW 30 48 29.68 1005 10 16.09344 0 0
7:55 am 07:55 Cloudy 43 6 32 0 66 66 NW 20 31 29.68 1005 10 16.09344 0 0
8:15 am 08:15 Cloudy 43 6 32 0 66 66 NNW 22 35 29.68 1005 10 16.09344 0 0
8:35 am 08:35 Cloudy 43 6 32 0 66 66 NNW 22 35 29.68 1005 10 16.09344 0 0
8:55 am 08:55 Cloudy 43 6 32 0 66 66 NW 18 30 29.68 1005 10 16.09344 0 0
9:15 am 09:15 Cloudy 43 6 32 0 66 66 NW 21 33 29.71 1006 10 16.09344 0 0
9:35 am 09:35 Cloudy 43 6 32 0 66 66 NW 25 41 29.68 1005 10 16.09344 0 0
9:55 am 09:55 Cloudy 43 6 32 0 66 66 NW 29 46 29.68 1005 10 16.09344 0 0
10:15 am 10:15 Partly Cloudy 45 7 34 1 66 66 NW 28 44 29.65 1004 10 16.09344 0 0
10:55 am 10:55 Mostly Cloudy 45 7 32 0 61 61 NNW 23 37 29.68 1005 10 16.09344 0 0
11:15 am 11:15 Cloudy 45 7 32 0 61 61 NW 12 19 29.68 1005 10 16.09344 0 0
11:35 am 11:35 Cloudy 45 7 34 1 66 66 NW 18 30 29.68 1005 10 16.09344 0 0
11:55 am 11:55 Cloudy 46 8 34 1 62 62 NW 20 31 29.68 1005 10 16.09344 0 0
12:15 pm 12:15 Mostly Cloudy 48 9 36 2 62 62 WNW 17 28 29.68 1005 10 16.09344 0 0
12:35 pm 12:35 Mostly Cloudy 48 9 34 1 58 58 NW 9 15 29.68 1005 10 16.09344 0 0
12:55 pm 12:55 Cloudy 48 9 36 2 62 62 WNW 18 30 29.65 1004 10 16.09344 0 0
1:15 pm 13:15 Cloudy 46 8 34 1 62 62 NW 18 30 29.65 1004 10 16.09344 0 0
1:35 pm 13:35 Cloudy 48 9 36 2 62 62 NW 18 30 29.65 1004 10 16.09344 0 0
1:55 pm 13:55 Mostly Cloudy 50 10 36 2 58 58 NNW 18 30 29.65 1004 10 16.09344 0 0
2:15 pm 14:15 Mostly Cloudy 50 10 36 2 58 58 NW 20 31 29.62 1003 10 16.09344 0 0
2:35 pm 14:35 Cloudy 50 10 36 2 58 58 WNW 17 28 29.62 1003 10 16.09344 0 0
2:55 pm 14:55 Cloudy 48 9 36 2 62 62 WNW 17 28 29.62 1003 10 16.09344 0 0
3:15 pm 15:15 Cloudy 48 9 36 2 62 62 NNW 8 13 29.62 1003 10 16.09344 0 0
3:35 pm 15:35 Cloudy 46 8 37 3 71 71 NNW 36 57 29.65 1004 5 8.04672 0 0
3:55 pm 15:55 Cloudy 39 4 37 3 93 93 WNW 14 22 29.68 1005 10 16.09344 0 0
4:15 pm 16:15 Partly Cloudy with Thunderstorms 43 6 41 5 93 93 WNW 9 15 29.68 1005 10 16.09344 0 0
4:35 pm 16:35 Partly Cloudy 46 8 39 4 76 76 NW 22 35 29.65 1004 10 16.09344 0 0
4:55 pm 16:55 Partly Cloudy 46 8 37 3 71 71 WNW 18 30 29.65 1004 10 16.09344 0 0
5:15 pm 17:15 Partly Cloudy 46 8 34 1 62 62 NW 25 41 29.65 1004 10 16.09344 0 0
5:35 pm 17:35 Partly Cloudy 46 8 32 0 57 57 WNW 24 39 29.68 1005 10 16.09344 0 0
5:55 pm 17:55 Partly Cloudy 45 7 32 0 61 61 NW 28 44 29.68 1005 10 16.09344 0 0
6:15 pm 18:15 Partly Cloudy 45 7 32 0 61 61 WNW 26 43 29.71 1006 10 16.09344 0 0
6:35 pm 18:35 Mostly Cloudy 45 7 32 0 61 61 NNW 20 31 29.74 1007 10 16.09344 0 0
6:55 pm 18:55 Cloudy 43 6 32 0 66 66 NNW 20 31 29.77 1008 10 16.09344 0 0
7:15 pm 19:15 Partly Cloudy 41 5 32 0 70 70 WNW 17 28 29.77 1008 10 16.09344 0 0
7:35 pm 19:35 Partly Cloudy 43 6 30 -1 61 61 WNW 23 37 29.8 1009 10 16.09344 0 0
7:55 pm 19:55 Partly Cloudy 43 6 30 -1 61 61 WNW 17 28 29.8 1009 10 16.09344 0 0
8:35 pm 20:35 Clear 41 5 28 -2 61 61 NW 13 20 29.83 1010 10 16.09344 0 0
8:55 pm 20:55 Partly Cloudy 41 5 28 -2 61 61 NW 14 22 29.83 1010 10 16.09344 0 0
9:15 pm 21:15 Clear 41 5 28 -2 61 61 NW 15 24 29.85 1011 10 16.09344 0 0
9:35 pm 21:35 Clear 41 5 28 -2 61 61 NW 21 33 29.85 1011 10 16.09344 0 0
9:55 pm 21:55 Clear 41 5 30 -1 66 66 NW 24 39 29.85 1011 10 16.09344 0 0
10:15 pm 22:15 Clear 41 5 30 -1 66 66 NW 21 33 29.88 1012 10 16.09344 0 0
10:35 pm 22:35 Clear 41 5 30 -1 66 66 WNW 12 19 29.88 1012 10 16.09344 0 0
10:55 pm 22:55 Partly Cloudy 39 4 30 -1 70 70 WNW 16 26 29.88 1012 10 16.09344 0 0
11:15 pm 23:15 Cloudy 39 4 32 0 75 75 NW 17 28 29.91 1013 10 16.09344 0 0
11:35 pm 23:35 Mostly Cloudy 37 3 34 1 87 87 WNW 13 20 29.91 1013 7 11.265408 0 0
11:55 pm 23:55 Mostly Cloudy 37 3 32 0 81 81 NW 18 30 29.91 1013 10 16.09344 0 0

Powered by AerisWeather